User: anonymous   Login
Location: Edinburgh
(55.9500°N, 3.1600°W)
Time: 02:14:41
(UTC+01:00)
Language:

Envisat - Orbit

View from above orbital plane
View from above orbital plane
View from above satellite
View from above satellite

Ground track
Ground track

The orbit data is extracted from the following two-line orbital elements,

1 27386U 02009A   18198.52724515 -.00000018  00000-0  77260-5 0  9992
2 27386  98.1822 231.1550 0001361  96.7118  74.6986 14.37925906857880
Epoch (UTC): 17 July 2018 12:39:13
Eccentricity: 0.0001361
inclination: 98.1822°
perigee height: 764 km
apogee height: 766 km
right ascension of ascending node: 231.1550°
argument of perigee: 96.7118°
revolutions per day: 14.37925906
mean anomaly at epoch: 74.6986°
orbit number at epoch: 85788

The dashed part of the orbit path shows where the satellite is in the earth's shadow,  

DLR